Weather History for KMIV - March, 2013

Change the Weather History Date:

Wednesday, March 27, 2013

  Actual Average Record
Temperature  
Mean Temperature 40 °F -  
Max Temperature 51 °F 54 °F 82 °F (2007)
Min Temperature 30 °F 32 °F 16 °F (2001)
Degree Days  
Heating Degree Days 25    
Moisture  
Dew Point 27 °F    
Average Humidity 59    
Maximum Humidity 89    
Minimum Humidity 35    
Precipitation  
Precipitation 0.00 in - - ()
Sea Level Pressure  
Sea Level Pressure 29.97 in    
Wind  
Wind Speed 9 mph (WNW)    
Max Wind Speed 18 mph    
Max Gust Speed 29 mph    
Visibility 10 miles    
Events      
Averages and records for this station are not official NWS values.
T = Trace of Precipitation, MM = Missing Value Source: NWS Daily Summary

Daily Weather History Graph

Daily Weather History Graph

Search for Another Location

Airport or City:

Trip Planner

Search our weather history database for the weather conditions in past years. The results will help you decide how hot, cold, wet, or windy it might be!

Date:

Astronomy

Mar. 27, 2013 Rise Set
Actual Time 6:52 AM EDT 7:19 PM EDT
Civil Twilight 6:25 AM EDT 7:46 PM EDT
Nautical Twilight 5:53 AM EDT 8:18 PM EDT
Astronomical Twilight 5:21 AM EDT 8:50 PM EDT
Moon 8:00 PM EDT (3/27) 6:42 AM EDT (3/27)
Length of Visible Light 13h 21m
Length of Day
12h 27m
Full, 100% of the Moon is Illuminated
Mar 27
Full
Apr 3
Last Quarter
Apr 10
New
Apr 18
First Quarter
Apr 25
Full

Hourly Weather History & Observations

Time (EDT) Temp. Windchill Dew Point Humidity Pressure Visibility Wind Dir Wind Speed Gust Speed Precip Events Conditions
12:54 AM 37.9 °F 33.5 °F 30.9 °F 76% 29.93 in 10.0 mi West 5.8 mph - 0.00 in   Overcast
1:54 AM 33.1 °F 28.7 °F 30.0 °F 89% 29.93 in 10.0 mi West 4.6 mph - N/A   Clear
2:54 AM 32.0 °F 25.6 °F 28.9 °F 88% 29.92 in 10.0 mi West 6.9 mph - N/A   Clear
3:54 AM 36.0 °F 30.3 °F 30.0 °F 79% 29.92 in 10.0 mi WNW 6.9 mph - N/A   Clear
4:54 AM 36.0 °F 29.6 °F 28.9 °F 76% 29.93 in 10.0 mi WNW 8.1 mph - N/A   Clear
5:54 AM 30.9 °F 26.2 °F 26.1 °F 82% 29.94 in 10.0 mi West 4.6 mph - N/A   Clear
6:54 AM 30.9 °F 25.2 °F 27.0 °F 85% 29.96 in 10.0 mi West 5.8 mph - N/A   Scattered Clouds
7:54 AM 34.0 °F 28.0 °F 30.0 °F 85% 29.98 in 10.0 mi West 6.9 mph - N/A   Mostly Cloudy
8:54 AM 42.1 °F 35.2 °F 30.0 °F 62% 30.00 in 10.0 mi NW 12.7 mph - N/A   Scattered Clouds
9:54 AM 43.0 °F 36.4 °F 28.0 °F 56% 30.00 in 10.0 mi WNW 12.7 mph 25.3 mph N/A   Mostly Cloudy
10:54 AM 46.0 °F 40.6 °F 27.0 °F 47% 30.00 in 10.0 mi WNW 11.5 mph - N/A   Mostly Cloudy
11:54 AM 48.0 °F - 27.0 °F 44% 29.98 in 10.0 mi West 17.3 mph 23.0 mph N/A   Scattered Clouds
12:54 PM 48.9 °F - 23.0 °F 36% 29.97 in 10.0 mi West 16.1 mph 23.0 mph N/A   Partly Cloudy
1:54 PM 50.0 °F - 23.0 °F 35% 29.96 in 10.0 mi NW 18.4 mph 28.8 mph N/A   Mostly Cloudy
2:54 PM 48.9 °F - 23.0 °F 36% 29.95 in 10.0 mi WNW 12.7 mph - N/A   Overcast
3:54 PM 50.0 °F - 24.1 °F 36% 29.95 in 10.0 mi WNW 10.4 mph 24.2 mph N/A   Mostly Cloudy
4:54 PM 50.0 °F - 24.1 °F 36% 29.95 in 10.0 mi West 12.7 mph 25.3 mph N/A   Mostly Cloudy
5:54 PM 48.0 °F - 25.0 °F 41% 29.96 in 10.0 mi West 12.7 mph 23.0 mph N/A   Clear
6:54 PM 48.0 °F - 23.0 °F 37% 29.98 in 10.0 mi WNW 10.4 mph - N/A   Clear
7:54 PM 42.1 °F 38.4 °F 26.1 °F 53% 30.00 in 10.0 mi West 5.8 mph - N/A   Partly Cloudy
8:54 PM 42.1 °F 36.6 °F 27.0 °F 55% 30.02 in 10.0 mi West 9.2 mph - N/A   Scattered Clouds
9:54 PM 41.0 °F 35.2 °F 27.0 °F 57% 30.04 in 10.0 mi West 9.2 mph - N/A   Clear
10:54 PM 37.9 °F 33.5 °F 27.0 °F 65% 30.04 in 10.0 mi WNW 5.8 mph - N/A   Clear
11:54 PM 36.0 °F 30.3 °F 27.0 °F 70% 30.04 in 10.0 mi West 6.9 mph - N/A   Clear